Location: Az?znagar
(16.8373°N, 80.5091°E)
Time: 09:25:59
(UTC+00:00)

SL-4 R/B - Pass Details

Date: 04 December 2021
Orbit: 427 x 660 km, 51.6° (Epoch: 16 January)

Event Time Altitude Azimuth Distance (km) Brightness Sun altitude
Rises 00:03:31 0° 210° (SSW) 2,370 5.2 -11.8°
Reaches altitude 10° 00:05:36 10° 206° (SSW) 1,508 4.2 -11.3°
Maximum altitude 00:08:55 57° 127° (SE) 512 2.2 -10.6°
Drops below altitude 10° 00:12:20 10° 47° (NE) 1,558 4.7 -9.8°
Sets 00:14:31 0° 43° (NE) 2,457 5.7 -9.3°
